Location: Baili�vre
(50.0696°N, 4.2409°E)
Time: 19:51:48
(UTC+00:00)

Envisat - Visible Passes

Search period start: 19 January 2022 00:00
Search period end: 29 January 2022 00:00
Orbit: 764 x 766 km, 98.2° (Epoch: 19 January)

Date Brightness Start Highest point End Pass type
(mag) Time Alt. Az. Time Alt. Az. Time Alt. Az.
19 Jan 5.1 03:41:16 10° NE 03:45:21 24° E 03:49:23 10° SE visible
19 Jan 3.0 05:19:43 10° N 05:24:42 55° WNW 05:29:39 10° SW visible
20 Jan 6.0 03:06:15 10° ENE 03:07:58 12° E 03:09:41 10° ESE visible
20 Jan 3.1 04:42:45 10° NNE 04:47:52 76° ESE 04:52:57 10° S visible
20 Jan 4.2 06:22:46 10° NNW 06:26:21 20° WNW 06:29:54 10° WSW visible
21 Jan 4.3 04:06:07 10° NNE 04:10:51 38° E 04:15:33 10° SSE visible
21 Jan 3.5 05:45:14 10° N 05:49:50 35° WNW 05:54:25 10° SW visible
21 Jan 5.9 17:06:24 10° SW 17:09:39 17° W 17:12:55 10° NW visible
22 Jan 5.4 03:30:01 10° NE 03:33:37 19° E 03:37:13 10° SE visible
22 Jan 2.9 05:08:04 10° N 05:13:09 68° WNW 05:18:11 10° SSW visible
22 Jan 4.7 06:48:59 10° NNW 06:51:15 13° NW 06:53:32 10° W visible
23 Jan 3.4 04:31:12 10° NNE 04:36:15 61° E 04:41:17 10° S visible
23 Jan 4.0 06:10:55 10° N 06:14:53 23° WNW 06:18:50 10° WSW visible
24 Jan 4.7 03:54:40 10° NNE 03:59:10 31° E 04:03:38 10° SSE visible
24 Jan 3.3 05:33:31 10° N 05:38:19 43° WNW 05:43:05 10° SW visible
24 Jan 5.8 16:54:08 10° SW 16:57:55 21° W 17:01:43 10° NW visible
25 Jan 5.7 03:18:52 10° NE 03:21:53 16° E 03:24:52 10° ESE visible
25 Jan 2.8 04:56:27 10° NNE 05:01:34 83° WNW 05:06:39 10° SSW visible
25 Jan 4.5 06:36:53 10° NNW 06:39:51 16° NW 06:42:47 10° W visible
26 Jan 3.8 04:19:39 10° NNE 04:24:37 49° E 04:29:32 10° S visible
26 Jan 3.8 05:59:07 10° N 06:03:24 28° WNW 06:07:40 10° WSW visible
26 Jan 6.1 17:21:22 10° WSW 17:23:33 13° W 17:25:45 10° WNW visible
27 Jan 5.0 03:43:17 10° NE 03:47:28 25° E 03:51:37 10° SSE visible
27 Jan 3.1 05:21:50 10° N 05:26:47 52° WNW 05:31:42 10° SW visible
28 Jan 5.9 03:08:01 10° ENE 03:10:07 12° E 03:12:12 10° ESE visible
28 Jan 3.0 04:44:51 10° NNE 04:49:58 80° ESE 04:55:03 10° SSW visible
28 Jan 4.3 06:24:56 10° NNW 06:28:24 19° WNW 06:31:50 10° W visible
